SPACEMOBILE-008

Last updated on Fri Sep 11 2026 00:02:08 GMT+0000 (Coordinated Universal Time)

1 69589U 26139A 26253.42853276 .00001441 00000+0 97607-4 0 9995 2 69589 52.9945 235.5276 0002957 207.4216 152.6620 15.12960797 12886
UTC large
Height (km)
Speed (km/s)
/
Latitude / Longitude
Inclination (degrees)
Orbital Period (minutes)
Azimuth
Elevation
Range (km)
Doppler Factor

Next 0 passes for location: London (51.5072 / 0.1276)

No passes found over London.
SPACEMOBILE-008